Location: Beccas
(43.4309°N, 0.1528°E)
Time: 23:53:24
(UTC+00:00)

Cosmos 1269 Rocket - Pass Details

Date: 15 October 2021
Orbit: 773 x 778 km, 74.1° (Epoch: 26 November)

Event Time Altitude Azimuth Distance (km) Brightness Sun altitude
Rises 19:39:30 0° 336° (NNW) 3,268 7.8 -26.7°
Reaches altitude 10° 19:41:55 10° 334° (NNW) 2,335 7.0 -27.1°
Maximum altitude 19:47:09 64° 254° (WSW) 857 4.3 -28.0°
Enters shadow 19:47:51 58° 215° (SW) 902 4.3 -28.2°
